Regional Weather Roundup
Issued by NWS

Home | Current Version | Previous Version | Graphics & Text | Print | Product List | Glossary On
Versions: 1 2 3 4 5 6 7 8 9 10 11 12 13 14 15 16 17 18 19 20 21 22 23 24 25 26 27 28 29 30 31 32 33 34 35 36 37 38 39 40 41 42 43 44 45 46 47 48 49 50
000
ASUS45 KBOU 120107
RWRCO

WEATHER ROUNDUP FOR COLORADO
NATIONAL WEATHER SERVICE DENVER/BOULDER CO
600 PM MST THU FEB 11 2016

NOTE: "FAIR" INDICATES FEW OR NO CLOUDS BELOW 12000 FEET WITH NO
SIGNIFICANT WEATHER AND/OR OBSTRUCTIONS TO VISIBILITY.

COZ001>005-013-030-031-120200-
...NORTHWEST COLORADO...

CITY           SKY/WX    TMP DP  RH WIND       PRES   REMARKS
CRAIG          CLOUDY    20  14  77 CALM      30.38S
HAYDEN         CLOUDY    25  16  68 CALM      30.38R
MEEKER         CLOUDY    30  21  69 NE3       30.37R
MOUNT WERNER   NOT AVBL
STEAMBOAT SPGS CLOUDY    26  18  70 CALM      30.37S
WALDEN         CLOUDY    34  18  51 S3        30.37R
$$

COZ006>008-011-120200-
...WEST CENTRAL VALLEYS...

CITY           SKY/WX    TMP DP  RH WIND       PRES   REMARKS
GRAND JUNCTION CLEAR     36  29  75 CALM      30.37S
MONTROSE       CLOUDY    41  25  53 N3        30.39R
EAGLE          CLEAR     37  21  52 CALM      30.38R
RIFLE          CLOUDY    34  22  61 S6        30.37R WCI  29
DELTA          CLOUDY    44  30  58 CALM      30.38S
NUCLA          CLOUDY    46  19  34 CALM      30.41S
$$

COZ017>023-064>068-120200-
...SOUTHWEST COLORADO...

CITY           SKY/WX    TMP DP  RH WIND       PRES   REMARKS
DURANGO        CLOUDY    38  19  46 NE3       30.35R
CORTEZ         CLOUDY    42  25  50 CALM      30.36R
PAGOSA SPRINGS CLOUDY    39  24  55 CALM      30.38S
TELLURIDE      CLOUDY    42   8  24 CALM      30.46R
WOLF CREEK PAS CLOUDY    32   3  29 NW5       30.54S WCI  27
$$

COZ009-010-012-014-032>034-037-058>063-120200-
...CENTRAL COLORADO...

CITY           SKY/WX    TMP DP  RH WIND       PRES   REMARKS
ASPEN          CLOUDY    34  19  54 S10       30.39R WCI  26
BUENA VISTA    CLOUDY    44  17  32 CALM      30.33R
COPPER MTN     CLOUDY    32  12  43 W18G24    30.48S WCI  20
BERTHOUD PASS  FAIR      23  12  63 NW41G54   30.39S WCI   3
COTTONWOOD PAS CLOUDY    45  12  26 W12G23    30.40R
GUNNISON       CLOUDY    12   3  67 E7        30.47R WCI   2
KREMMLING      CLOUDY    18  10  73 W5        30.42R WCI  11
LEADVILLE      CLOUDY    33  11  39 NW9       30.40R WCI  25
MONARCH PASS   CLOUDY    27   5  39 W24       30.57R WCI  12
SALIDA         NOT AVBL
SUNLIGHT       CLEAR     34   9  35 CALM      30.52R
WILKERSON PASS CLOUDY    32  14  47 N9        30.47R WCI  24
$$

COZ069>075-120200-
...SAN LUIS VALLEY/SANGRE DE CRISTO MOUNTAINS...

CITY           SKY/WX    TMP DP  RH WIND       PRES   REMARKS
ALAMOSA        CLOUDY    38  20  48 W7        30.34R
LA VETA PASS   CLOUDY    36  10  35 S13G21    30.41R
SAGUACHE       CLOUDY    32  19  59 E5        30.38R WCI  27
$$

COZ035-036-038>040-120200-
...NORTHERN COLORADO FRONT RANGE...

CITY           SKY/WX    TMP DP  RH WIND       PRES   REMARKS
DENVER INTL AP MOCLDY    44  28  53 SE16      30.21R
DMNS CITY PARK   N/A     49  24  37 E20G29    30.21R
AURORA         PTCLDY    42  28  56 SE13      30.24R
FRONT RANGE AP MOCLDY    39  28  65 SE14      30.23R
ERIE MUNI ARPT CLOUDY    49  26  39 SE14      30.20R
BOULDER MUN AP CLOUDY    52  27  37 W8        30.20R
CENTENNIAL     CLOUDY    45  26  47 SE14      30.23R
BROOMFIELD     MOCLDY    52  25  35 NE9       30.22R
FORT COLLINS   CLOUDY    46  25  42 S10       30.21R
LONGMONT       CLOUDY    49  30  46 SE10      30.22R
$$

COZ041-046-047-076>085-087-088-120200-
...PIKES PEAK/PALMER DIVIDE AND SOUTHERN FOOTHILLS...

CITY           SKY/WX    TMP DP  RH WIND       PRES   REMARKS
COLO. SPRINGS  MOCLDY    45  24  43 NE14      30.21R
A. F. ACADEMY  CLOUDY    44  24  44 N8        30.22R
SCHRIEVER AFB  NOT AVBL
ELLICOTT       CLEAR    N/A N/A N/A E15       30.21R
FALCON         CLEAR     42  22  45 N13       30.26R
FORT CARSON    CLEAR     49  20  31 N3        30.18R
LIMON          CLOUDY    33  28  81 N8        30.23R WCI  26
MONUMENT HILL  CLOUDY    36  25  64 E12       30.27R
TRINIDAD       CLOUDY    56  13  18 W6        30.18R
$$

COZ042>045-048>051-090-091-120200-
...NORTHEAST COLORADO...

CITY           SKY/WX    TMP DP  RH WIND       PRES   REMARKS
GREELEY ARPT   CLOUDY    39  28  65 SW6       30.19R
AKRON          CLOUDY    43  28  55 N6        30.20R
BURLINGTON     CLOUDY    42  28  57 NW6       30.19R
WRAY           NOT AVBL
STERLING       CLOUDY    43  32  65 CALM      30.18R
HOLYOKE        CLOUDY    46  32  57 NW8       30.17R
FORT MORGAN    CLOUDY    46  24  43 N13       30.20R
$$

COZ086-089-092>099-120200-
...SOUTHEAST COLORADO...

CITY           SKY/WX    TMP DP  RH WIND       PRES   REMARKS
PUEBLO         CLEAR     60  26  27 E18       30.13R
LA JUNTA       CLOUDY    55  27  34 E12       30.14R
LAMAR          CLOUDY    55  21  26 NE10      30.13R
SPRINGFIELD      N/A     50  19  29 N9        30.14R
$$



USA.gov is the U.S. government's official web portal to all federal, state and local government web resources and services.